Home > Weather > Dharmapuri > Past weeks

Flag for India Past Weather in Dharmapuri, Tamil Nadu, India — Yesterday and Last 2 Weeks

Now
70 °F

Passing clouds.


Feels Like: 70 °F
Forecast: 72 / 85 °F
Wind: 9 mph from West

Location: Bangalore / Hindustan

Current Time: Jul 24, 2016 at 2:56:16 AM

Latest Report: Jul 23, 2016 at 11:30 PM


Visibility: N/A

Pressure: 29.89 "Hg

Humidity: 94%

Dew Point: 68 °F

Location of DharmapuriLocation

Past Weather in Dharmapuri — Graph

°F

Dharmapuri Temperature Yesterday

Maximum temperature yesterday: 81 °F (at 12:30 PM)
Minimum temperature yesterday: 68 °F (at 5:30 AM)
Average temperature yesterday: 75 °F

High & Low Weather Summary for the Past Weeks

 TemperatureHumidityPressure
High86 °F (Jul 14, 3:30 PM)94% (Jul 9, 10:30 AM)30.01 "Hg (Jul 9, 10:30 AM)
Low68 °F (Jul 13, 6:00 AM)49% (Jul 14, 3:30 PM)29.77 "Hg (Jul 10, 2:30 PM)
Average76 °F73%29.87 "Hg
* Reported Jul 8 11:30 PM — Jul 23 11:30 PM, Dharmapuri, Weather by CustomWeather, © 2016

Note: Actual official high and low records may vary slightly from our data, if they occured in-between our weather recording intervals... More about our weather records

Advertising

Dharmapuri Weather History for the Previous 24 Hours

Scroll right to see more
 ConditionsComfort  
Time TempWeatherWind HumidityBarometerVisibility
11:30 PM
Sat, Jul 23
70 °FPassing clouds.9 mph94%29.89 "HgN/A
10:30 PM70 °FPassing clouds.12 mph88%29.89 "HgN/A
9:30 PM70 °FPassing clouds.12 mph94%29.89 "HgN/A
8:30 PM73 °FPassing clouds.7 mph78%29.86 "HgN/A
7:30 PM75 °FPartly cloudy.7 mph74%29.83 "HgN/A
6:30 PM75 °FBroken clouds.9 mph74%29.83 "HgN/A
5:30 PM77 °FBroken clouds.9 mph69%29.80 "HgN/A
5:00 PM77 °FBroken clouds.9 mph69%29.80 "HgN/A
4:30 PM77 °FBroken clouds.7 mph69%29.80 "HgN/A
4:00 PM79 °FScattered showers. Broken clouds.12 mph61%29.77 "Hg5 mi
3:30 PM79 °FScattered clouds.12 mph61%29.77 "HgN/A
3:00 PM79 °FScattered clouds.12 mph61%29.80 "HgN/A
2:30 PM79 °FScattered clouds.12 mph65%29.80 "HgN/A
2:00 PM79 °FScattered clouds.12 mph65%29.80 "HgN/A
1:30 PM79 °FScattered clouds.12 mph65%29.80 "HgN/A
1:00 PM81 °FScattered clouds.12 mph58%29.83 "HgN/A
12:30 PM81 °FScattered clouds.12 mph58%29.83 "HgN/A
12:00 PM79 °FScattered clouds.14 mph61%29.83 "HgN/A
11:30 AM77 °FScattered clouds.14 mph65%29.86 "HgN/A
11:00 AM77 °FScattered clouds.14 mph69%29.86 "HgN/A
10:30 AM77 °FScattered clouds.14 mph69%29.86 "HgN/A
10:00 AM75 °FScattered clouds.14 mph74%29.86 "HgN/A
9:30 AM73 °FScattered clouds.14 mph78%29.86 "Hg5 mi
9:00 AM72 °FScattered clouds.12 mph78%29.86 "Hg5 mi
8:30 AM72 °FScattered clouds.12 mph78%29.86 "Hg5 mi
8:00 AM70 °FScattered clouds.12 mph83%29.86 "Hg5 mi
7:30 AM70 °FScattered clouds.12 mph83%29.86 "Hg5 mi
6:30 AM68 °FPassing clouds.9 mph88%29.83 "Hg5 mi
6:00 AM68 °FPassing clouds.12 mph88%29.83 "Hg5 mi
5:30 AM68 °FPassing clouds.9 mph88%29.83 "Hg5 mi
Weather by CustomWeather, © 2016

See weather overviewHow to use our weather pages